COSMOS 2251 DEB

Satellite information

Favourite Embed

Satellite Type and Status

DEBRISIN ORBIT

Key statistics

Satellite COSMOS 2251 DEB at a glance.

Uptime

11868

Days in orbit

Revolutions

≈ 14.7

Per day

Orbit

LEO

Low Earth Orbit

Inclination

74.0

Latest

Satellite identification and parameters

Extended collection of information and parameters for COSMOS 2251 DEB.

Object identification

Identified? True

Debris? True

Object name: COSMOS 2251 DEB

International designator: 1993-036AQP

Object number (NORAD): 35718

Object ID (CCSDS): 35718

Country: COMMONWEALTH OF INDEPENDENT STATES (CIS)

Current information (Y/N): Y

RCS size: SMALL

Orbital parameters

Period: 98.05 minutes

Inclination: 74.0319 deg

SMA: 7043.554 km

Apoapsis: 673.135 km

Periapsis: 657.703 km

RAAN: 131.1364 deg

Eccentricy: 0.00109549

Argument of periapsis: 179.8219 deg

Mean anomaly: 180.2958 deg

Mean motion: 14.68638717 rev/day

Mean motion (dot): 0.00013946 rev/day2

B* drag term: 0.002396412 1/REarth

Two-line elements (TLE)

Creation date: Dec. 12, 2025, 10:14 a.m.

Reference frame: TEME

Reference center: EARTH

Epoch: Dec. 12, 2025, 3:17 a.m. UTC

TLE line 0: 0 COSMOS 2251 DEB

TLE line 1: 1 35718U 93036AQP 25346.13742131 .00013946 00000-0 23964-2 0 9996

TLE line 2: 2 35718 74.0319 131.1364 0010955 179.8219 180.2958 14.68638717658313

Live tracking on map

Real-time ground track for satellite COSMOS 2251 DEB.

In-orbit conjunctions

A list of the most updated potential collisions computed for object COSMOS 2251 DEB.

Target Orbit TCA Probability of collision Miss distance Type
CZ-6A DEB SSO 2024-11-07 21:19:48 0.0007922361 197.0 (m) DEBRIS
FENGYUN 1C DEB SSO 2024-09-26 17:21:03 0.0002560726 294.0 (m) DEBRIS

Associated space launch

Military communications satellite. Destroyed in a collision with Iridium 33.

COSMOS 2251 DEB was lifted into orbit during the mission ‘Kosmos-3M | Strela-2M 51’, on board a Kosmos-3M space rocket.

The launch took place on June 16, 1993, 4:17 a.m. from 132/1 (132L).

For more information about the launch, click the button.

Launch to space Kosmos-3M | Strela-2M 51
Kosmos-3M | Strela-2M 51

Agency: N/A

Status: Launch Successful

Launch date: June 16, 1993, 4:17 a.m. UTC

Rocket: Kosmos-3M

Launch pad: 132/1 (132L)

Location: Plesetsk Cosmodrome, Russian Federation

...

Latest news about this satellite

There are no fresh news available about this satellite. Check back as we update our databases every day.


Newsletter sign-up

Weekly statistics, charts and insights to help you stay on top of the space industry.